Location: Unspecified
(0.0000°N, 0.0000°E)
Time: 02:38:32
(UTC+00:00)

N. Korean satellite - Pass Details

Date: 19 September 2017
Orbit: 461 x 516 km, 97.2° (Epoch: 24 September)

Event Time Altitude Azimuth Distance (km) Brightness Sun altitude
Rises 18:48:38 0° 182° (S) 2,613 10.3 -13.8°
Reaches altitude 10° 18:50:49 10° 189° (S) 1,731 9.5 -14.3°
Maximum altitude 18:54:19 39° 259° (W) 778 8.2 -15.2°
Drops below altitude 10° 18:57:50 10° 329° (NNW) 1,733 9.8 -16.1°
Sets 19:00:01 0° 337° (NNW) 2,617 10.6 -16.6°
